Other Public Products
Issued by NWS Grand Forks, ND

Home | Current Version | Previous Version | Text Only | Print | Product List | Glossary On
Versions: 1 2 3 4 5 6 7 8 9 10 11 12 13 14 15 16 17 18 19 20 21 22 23 24 25 26 27 28 29 30 31 32 33 34 35 36 37 38 39 40 41 42 43 44 45 46 47 48 49 50
406
FPUS83 KFGF 061110
OPUFGF
PRAIRIE TO PINES WEATHER ROUNDUP
NATIONAL WEATHER SERVICE EASTERN NORTH DAKOTA/GRAND FORKS ND
500 AM CST TUE DEC 06 2016

 **SATELLITE DATA USED TO AUGMENT SKY COVER AT AUTOMATED STATIONS**
 *****  WEATHER ACROSS EASTERN NORTH DAKOTA  *****

CITY           SKY/WX    TMP DP  RH WIND       PRES   REMARKS
GRAND FORKS    CLOUDY    30  27  88 NW20      29.31S FOG     WCI  17
GRAND FORKS AF LGT SNOW  28  28 100 N21       29.32F FOG     WCI  15
GRAND CITY NWS   N/A     28 N/A N/A N9          N/A  WCI  20
BUXTON         NOT AVBL
DEVILS LAKE    LGT SNOW  26  24  92 NW30G37   29.46R VSB 1   WCI  10
FARGO          LGT SNOW  24  20  84 S18       29.41F FOG     WCI  10
WAHPETON ARPT  CLOUDY    21  14  73 SW24G32   29.53F WCI   4
$$

 *****  WEATHER ACROSS CENTRAL AND WESTERN NORTH DAKOTA  *****

CITY           SKY/WX    TMP DP  RH WIND       PRES   REMARKS
JAMESTOWN      SNOW      22  19  89 NW35G48   29.48R VSB 1/2 WCI   3
BISMARCK       LGT SNOW  12  10  92 NW25G40   29.76R VSB 1   WCI  -8
MINOT          HVY SNOW  12   9  87 W36G49    29.73R VSB 1/4 WCI -11
MINOT AFB      BLWGSNOW  10   9  92 NW40      29.72R VSB 1/4 WCI -14
GARRISON         N/A      9   6  88 NW38G49   29.74R WCI -16
WILLISTON      LGT SNOW   7   1  76 NW24G32   29.98S WCI -14
DICKINSON      MIX PCPN   5   0  79 NW35      29.85R WCI -20
HETTINGER      CLOUDY     6   0  76 NW32G41   29.88R WCI -18
$$

 *****  OTHER OBSERVATIONS NORTHEAST NORTH DAKOTA  *****

CITY           SKY/WX    TMP DP  RH WIND       PRES   REMARKS
WALHALLA       LGT SNOW  28  28 100 N30G38    29.40F VSB 3/4 WCI  13
LANGDON        LGT SNOW  27  27 100 N29G39    29.40F VSB 3/4 WCI  11
CAVALIER       SNOW      28  28 100 N28G39    29.36F VSB 1/2 WCI  13
GRAFTON        CLOUDY    28  30 100 N24G33    29.33S FOG     WCI  14
CANDO          LGT SNOW  25  25 100 N30G41    29.53R WCI   8
FORT TOTTEN      N/A     26  26 100 NW14      29.95S WCI  14
ROLLA          SNOW      19  19 100 N37G47    29.54F VSB 1/2 WCI  -1
RUGBY          LGT SNOW  16  16 100 NW35G41   29.58S VSB 3/4 WCI  -6
 ***** THE ABOVE OBSERVATIONS ARE NON NWS ARE NOT QUALITY
        CONTROLLED AND MAY MIS-REPORT RAIN FOR SNOW...
$$

 *****  OTHER OBSERVATIONS SOUTHEAST NORTH DAKOTA *****

CITY           SKY/WX    TMP DP  RH WIND       PRES   REMARKS
COOPERSTOWN    LGT SNOW  27  27 100 NW24G33   29.39S VSB 1   WCI  12
VALLEY CITY    LGT SNOW  27  27 100 NW28G36   29.43S WCI  11
OAKES          NOT AVBL
GWINNER          N/A     23  21  93 W23G32    29.50S WCI   7
SHEYENNE NWR     N/A     22  18  83 W15       29.95S WCI   9
BUFFALO        NOT AVBL
WYNDMERE       NOT AVBL
 ***** THE ABOVE OBSERVATIONS ARE NON NWS ARE NOT QUALITY
       CONTROLLED AND MAY MIS-REPORT RAIN FOR SNOW...
$$

  *****  WEATHER ACROSS NORTHERN MINNESOTA  *****

CITY           SKY/WX    TMP DP  RH WIND       PRES   REMARKS
FLAG ISLAND    LGT SNOW  34  32  93 SE18      29.33S WCI  23
WARROAD        FLURRIES  30  27  86 S13G24    29.34R WCI  20
ROSEAU         LGT SNOW  28  25  86 S21G29    29.32R WCI  15
HALLOCK        LGT SNOW  30  28  93 N17       29.29F WCI  18
THF RVR FALLS  LGT SNOW  24  22  91 S26G35    29.31S FOG     WCI   8
HALSTAD          N/A     25  23  93 S20         N/A  WCI  11
FOSSTON        CLOUDY    19  18  93 S23G33    29.38F WCI   2
BAUDETTE       CLOUDY    32  28  85 S18G25    29.35S WCI  20
WASKISH        CLOUDY    28  25  86 S13G23    29.41R WCI  18
CROOKSTON      CLOUDY    27  25  93 S21       29.32F FOG     WCI  13
$$
  *****  WEATHER ACROSS CENTRAL AND WEST MINNESOTA  *****

CITY           SKY/WX    TMP DP  RH WIND       PRES   REMARKS
BEMIDJI        CLOUDY    22  18  86 S13G20    29.43S WCI  10
PARK RAPIDS    CLOUDY    20  12  71 S20       29.49S WCI   4
WADENA         FLURRIES  18  12  79 SW18G24   29.53F WCI   2
DETROIT LAKES  CLOUDY    21  18  86 SW18G30   29.46F WCI   6
MOORHEAD       CLOUDY    21  18  86 S20G30    29.43F WCI   6
FERGUS FALLS   CLOUDY    19  12  73 SW21G30   29.59S WCI   3
ELBOW LAKE     CLOUDY    18  13  79 SW25      29.59S WCI   0
MORRIS MN      CLOUDY    19  12  73 SW24G33   29.62F WCI   2
STAPLES        CLOUDY    18  14  86 SW9       29.56F WCI   6
WHEATON        CLOUDY    19  14  79 SW28G36   29.61F WCI   1
$$
  *****  WEATHER ELSEWHERE ACROSS MINNESOTA  *****

CITY           SKY/WX    TMP DP  RH WIND       PRES   REMARKS
DULUTH         CLOUDY    33  29  85 SW17G26   29.54F WCI  22
INTRNTL FALLS  CLOUDY    33  31  92 S8        29.43S
ELY            CLOUDY    34  34 100 S12G17    29.50F
CLOQUET        CLOUDY    32  25  74 S15G23    29.55F WCI  22
BRAINERD       CLOUDY    21  16  81 S22G31    29.59R WCI   5
HIBBING        CLOUDY    29  25  85 S9G21     29.51S WCI  20
ALEXANDRIA     FLURRIES  19  13  77 SW23G32   29.60F WCI   2
SAINT CLOUD    CLOUDY    23  16  74 SW18G25   29.67S WCI   9
MINNEAPOLIS    CLOUDY    29  21  72 SW10      29.72S WCI  20
$$

  *****  WEATHER ACROSS SOUTH DAKOTA  *****

CITY           SKY/WX    TMP DP  RH WIND       PRES   REMARKS
SIOUX FALLS    PTCLDY    16  10  77 W14G21    29.85S WCI   2
BROOKINGS      FLURRIES  15   9  76 MISG      29.75F
WATERTOWN      FLURRIES  14   8  77 W25G36    29.68S WCI  -5
HURON          PTCLDY    14   7  73 W24G33    29.85S WCI  -5
SISSETON         N/A     18  11  74 W25G35    29.58F WCI   0
ABERDEEN       LGT SNOW  16   9  74 W28G39    29.68S WCI  -4
MITCHELL       FLURRIES  18  12  77 W24G32    29.89S WCI   0
PIERRE         CLOUDY    13   5  70 W24G39    29.91R WCI  -7
MOBRIDGE       LGT SNOW  13   7  77 NW31G48   29.78R WCI  -9
RAPID CITY     CLEAR     11   2  67 N13       29.93R WCI  -4
$$

  *****  SOME WEATHER IN NEARBY STATES *****

CITY           SKY/WX    TMP DP  RH WIND       PRES   REMARKS
GLASGOW MT     CLOUDY     3  -5  69 NW25G36   30.10R WCI -20
GREAT FALLS MT CLOUDY     4  -1  80 N7        30.11S WCI  -8
CHEYENNE WY    CLEAR      8 -10  43 W18G24    29.86S WCI -11
SCOTTSBLUFF NE CLEAR      6   0  76 NW6       29.98S WCI  -4
OMAHA NE       CLEAR     27  16  63 NW14      29.95R WCI  16
DES MOINES IA  FLURRIES  32  23  69 NW17G24   29.86F WCI  21
DAVENPORT IA   FOG       32  32 100 E3        29.81S VSB 1/4
CHICAGO IL     CLEAR     28  27  96 N6        29.79F FOG     WCI  22
EAU CLAIRE WI  LGT SNOW  33  32  96 S12       29.70F FOG     WCI  24
LA CROSSE WI   CLOUDY    35  31  85 S15       29.77F
$$

  *****  SOME NATIONAL WEATHER *****

CITY           SKY/WX    TMP DP  RH WIND       PRES   REMARKS
LA GUARDIA NY  PTCLDY    42  29  59 NW7       30.13R
RALEIGH NC     CLOUDY    47  43  86 E8        29.96F
ATLANTA GA     DRZL/FOG  52  52 100 E15       29.74F VSB 1/2
NEW ORLEANS LA MOCLDY    58  55  90 W13       29.80R
OKLAHOMA CITY  CLOUDY    42  40  92 N22       29.86R
ALBUQUERQUE NM CLOUDY    37  17  44 CALM      29.92F
SALT LAKE CITY MOCLDY    24   5  44 SE5       29.93F WCI  18
LOS ANGELES CA MOCLDY    57  52  83 E5        29.97S
BOISE ID       CLOUDY    26   9  48 E12       29.91F WCI  16
SEATTLE WA     FOG       34  34 100 NE8       30.02S VSB 1/2
$$

*** WEATHER ACROSS MANITOBA...SASKATCHEWAN AND ONTARIO ***
                ***ONTARIO***

CITY           SKY/WX    TMP DP  RH WIND       PRES   REMARKS
GERALDTON      CLOUDY    28  25  86 E9        29.82F WCI  20
THUNDER BAY    CLOUDY    41  36  81 SE17      29.66F
SIOUX LOOKOUT  LGT SNOW  30  28  93 E10G20    29.52F WCI  21
TORONTO        PTCLDY    32  28  86 CALM      30.04F
BIG TROUT LK   CLOUDY    23  23 100 E3        29.88S
PICKLE LAKE    CLOUDY    25  23  93 E12G22    29.74  WCI  14
DRYDEN         CLOUDY    32  30  93 SE15G22   29.46F WCI  22
KENORA         LGT SNOW  30  28  93 E14G22    29.38F DRFTSNOWWCI  20
$$
                *** MANITOBA***

CITY           SKY/WX    TMP DP  RH WIND       PRES   REMARKS
BRANDON        FLURRIES  25  21  86 N14G25    29.67S WCI  13
DAUPHIN        FRZ RAIN  19  18  93 N17G26    29.81S FOG     WCI   4
ISLAND LAKE    NOT AVBL
PILOT MOUND      N/A     25  23  93 N28G37      N/A  WCI   8
THE PAS        FLURRIES  18  14  86 NW16      29.95S WCI   3
THOMPSON       FLURRIES  19  18  93 NE3       29.92S
WINNIPEG       SNOW      30  28  93 N32G40    29.44F VSB 1/2 WCI  15
LYNN LAKE      LGT SNOW  16  16 100 N5        29.92S WCI   9
CHURCHILL      FLURRIES  25  23  93 N7        29.97S WCI  17
GILLAM         FLURRIES  19  18  93 NE6       29.96R WCI  11
$$
                ***SASKATCHEWAN***

CITY           SKY/WX    TMP DP  RH WIND       PRES   REMARKS
ESTEVAN        SNOW       7   3  85 NW29G36   29.89S VSB 1/2 WCI -16
KINDERSLEY     CLOUDY    -2  -8  78 NW16G24   30.15R WCI -23
LLOYDMINSTER   MOCLDY    -4  -9  77 NW16G22   30.17S HAZE    WCI -25
PRINCE ALBERT  FLURRIES   5  -2  72 NW15      30.07S WCI -13
REGINA         FLURRIES   7   1  78 NW23G30   30.00S WCI -14
YORKTON        LGT SNOW  10   7  85 NW20G26   29.90S WCC1F1C2F2C3F3C4F4C5F5C6F6C7F7C8F8C9F9CaFaCbFbCcFcCdFdCe!



USA.gov is the U.S. government's official web portal to all federal, state and local government web resources and services.